1508126400.9,58211,14.44,75008.0,6.23,-23.99,-25.45,0,*72
1508126402.15,58212,14.44,75004.5,6.23,-23.95,-24.97,0,*73
1508126403.38,58213,14.44,75004.8,6.23,-23.79,-24.97,0,*70
1508126404.63,58214,14.44,75002.8,6.23,-23.69,-24.93,0,*72
1508126405.91,58215,14.44,75004.3,6.23,-23.65,-24.83,0,*7E
1508126407.14,58216,14.44,75004.3,6.23,-23.79,-24.93,0,*71
1508126408.43,58217,14.44,75008.5,6.23,-23.85,-25.03,0,*7B
1508126409.67,58218,14.44,75004.0,6.23,-23.69,-24.97,0,*7A
1508126410.93,58219,14.44,75000.3,6.23,-23.53,-24.77,0,*7C
1508126412.19,58220,14.44,74992.5,6.21,-23.53,-24.71,0,*72
1508126413.45,58221,14.44,75004.3,6.23,-23.49,-24.61,0,*7B
1508126414.71,58222,14.44,75004.8,6.23,-23.53,-24.97,0,*7A
1508126415.96,58223,14.44,75004.5,6.23,-23.53,-24.93,0,*7F
1508126417.21,58224,14.44,75006.5,6.25,-23.69,-25.03,0,*7F
1508126418.5,58225,14.44,75004.3,6.23,-23.95,-25.29,0,*73
1508126419.78,58226,14.44,75000.0,6.23,-23.85,-25.29,0,*71
1508126421.03,58227,14.44,75002.3,6.23,-23.69,-24.97,0,*76
1508126422.28,58228,14.44,75004.8,6.23,-23.65,-24.97,0,*75
1508126423.52,58229,14.44,75004.0,6.25,-23.85,-25.19,0,*7B
1508126424.77,58230,14.44,75004.0,6.21,-23.85,-25.03,0,*7C
1508126425.98,58231,14.44,75006.8,6.21,-23.75,-24.97,0,*7E
1508126427.21,58232,14.44,75006.5,6.23,-23.79,-25.19,0,*74
1508126428.49,58233,14.44,75010.8,6.23,-23.49,-24.83,0,*74
1508126429.72,58234,14.44,75006.8,6.23,-23.39,-24.61,0,*78
1508126430.94,58235,14.44,75008.0,6.23,-23.39,-24.61,0,*79
1508126432.2,58236,14.44,75004.5,6.23,-23.33,-24.61,0,*70
1508126433.43,58237,14.44,75004.0,6.25,-23.49,-24.77,0,*7D
1508126434.64,58238,14.44,74998.5,6.25,-23.39,-24.77,0,*75
1508126435.84,58239,14.44,75002.3,6.25,-23.79,-24.97,0,*7E
1508126437.05,58240,14.44,75002.8,6.25,-23.79,-24.97,0,*70
1508126438.31,58241,14.44,75000.3,6.25,-23.49,-24.67,0,*7D
1508126439.53,58242,14.44,75006.5,6.25,-23.69,-24.93,0,*77
1508126440.79,58243,14.44,75000.5,6.23,-23.99,-25.19,0,*7C
1508126442.02,58244,14.44,74996.5,6.25,-23.99,-25.35,0,*73
1508126443.28,58245,14.44,74990.8,6.25,-23.99,-25.29,0,*7F
1508126444.54,58246,14.44,74992.0,6.25,-23.99,-25.45,0,*76
1508126445.78,58247,14.44,74996.3,6.25,-24.05,-25.45,0,*75
1508126447.0,58248,14.44,74994.5,6.25,-24.31,-25.49,0,*71
1508126448.27,58249,14.44,74992.0,6.23,-24.47,-25.75,0,*78
1508126449.51,58250,14.44,74996.3,6.23,-24.35,-25.61,0,*70
1508126450.73,58251,14.44,75002.5,6.25,-24.47,-25.65,0,*76
1508126452.0,58252,14.44,75008.3,6.23,-24.51,-25.75,0,*75
1508126453.24,58253,14.44,75004.0,6.23,-24.31,-25.61,0,*77
1508126454.51,58254,14.44,75008.5,6.23,-24.21,-25.61,0,*71
1508126455.78,58255,14.44,75008.5,6.21,-24.25,-25.55,0,*71
1508126457.02,58256,14.44,75012.8,6.21,-24.25,-25.49,0,*7F
1508126458.29,58257,14.44,75012.0,6.21,-24.21,-25.55,0,*77
1508126459.53,58258,14.44,75004.3,6.21,-23.69,-24.87,0,*7D
1508126460.76,58259,14.44,75006.0,6.19,-23.29,-24.51,0,*78
1508126461.97,58260,14.44,75010.8,6.21,-23.75,-25.09,0,*7C
1508126463.18,58261,14.44,75010.3,6.19,-23.89,-25.35,0,*7A
1508126464.39,58262,14.44,75006.0,6.21,-23.75,-24.97,0,*78
1508126465.64,58263,14.44,75008.3,6.23,-23.65,-24.93,0,*7E
1508126466.87,58264,14.44,75008.0,6.21,-23.75,-25.03,0,*72
1508126468.09,58265,14.44,75006.0,6.21,-23.69,-24.97,0,*72
1508126469.32,58266,14.44,75006.8,6.19,-23.29,-24.57,0,*72
1508126470.55,58267,14.38,75006.3,6.21,-23.59,-24.83,0,*76
1508126471.78,58268,14.44,75006.5,6.21,-23.59,-24.87,0,*7D
1508126473.04,58269,14.44,75010.5,6.23,-23.53,-24.77,0,*7B
1508126474.23,58270,14.44,75004.5,6.21,-23.39,-24.57,0,*7F
1508126475.48,58271,14.44,75006.8,6.23,-23.23,-24.51,0,*71
1508126476.76,58272,14.44,75006.8,6.23,-23.49,-24.67,0,*7B
1508126478.02,58273,14.44,75006.5,6.23,-23.65,-24.97,0,*7B
1508126479.3,58274,14.44,75006.0,6.23,-23.65,-24.83,0,*79
1508126480.55,58275,14.44,75008.3,6.23,-23.65,-24.97,0,*7D
1508126481.81,58276,14.44,75008.0,6.23,-23.79,-25.03,0,*7F
1508126483.06,58277,14.44,75012.3,6.23,-23.69,-24.93,0,*77
1508126484.31,58278,14.44,75012.8,6.23,-23.53,-24.93,0,*71
1508126485.57,58279,14.44,75008.8,6.23,-23.33,-24.61,0,*7B
1508126486.77,58280,14.44,75012.5,6.25,-23.39,-24.61,0,*71
1508126488.03,58281,14.44,75014.8,6.23,-23.33,-24.51,0,*7F
1508126489.26,58282,14.44,75006.8,6.25,-23.23,-24.51,0,*7B
1508126490.49,58283,14.44,75008.8,6.25,-23.85,-25.19,0,*7B
1508126491.75,58284,14.44,75006.0,6.23,-23.85,-24.97,0,*7D
1508126492.97,58285,14.44,75006.0,6.25,-23.69,-24.97,0,*78
1508126494.23,58286,14.44,75002.8,6.25,-23.85,-25.29,0,*7D
1508126495.49,58287,14.44,75010.5,6.25,-23.99,-25.45,0,*7B
1508126496.77,58288,14.44,75004.8,6.23,-23.95,-25.29,0,*74
1508126498.03,58289,14.44,75004.0,6.25,-23.49,-24.67,0,*79
1508126499.29,58290,14.44,75004.0,6.23,-23.53,-24.77,0,*7D
1508126500.54,58291,14.44,75006.3,6.25,-23.49,-24.67,0,*70
1508126501.78,58292,14.44,75004.5,6.25,-23.53,-24.77,0,*79
1508126503.01,58293,14.44,75002.5,6.25,-23.65,-24.77,0,*7D
1508126504.26,58294,14.44,75006.8,6.23,-23.69,-24.97,0,*7E
1508126505.49,58295,14.44,75000.3,6.25,-23.79,-25.03,0,*74
1508126506.72,58296,14.44,75002.8,6.25,-23.65,-24.97,0,*76
1508126508.0,58297,14.44,75010.0,6.23,-23.65,-25.03,0,*7D
1508126509.29,58298,14.44,75006.5,6.23,-23.99,-25.45,0,*73
1508126510.54,58299,14.44,75002.3,6.25,-23.99,-25.45,0,*74
1508126511.79,58300,14.44,75002.5,6.23,-24.31,-25.49,0,*7A
1508126513.03,58301,14.44,75002.8,6.23,-24.35,-25.65,0,*71
1508126514.27,58302,14.44,75000.8,6.23,-24.35,-25.65,0,*72
1508126515.54,58303,14.44,75004.5,6.23,-24.35,-25.75,0,*72
1508126516.78,58304,14.44,75010.0,6.23,-24.35,-25.65,0,*74
1508126518.03,58305,14.44,75006.0,6.23,-23.95,-25.35,0,*7D
1508126519.26,58306,14.44,75000.3,6.21,-23.99,-25.39,0,*7C
1508126520.47,58307,14.44,75002.8,6.21,-24.05,-25.39,0,*7F
1508126521.68,58308,14.44,75002.8,6.21,-24.05,-25.35,0,*7C
1508126522.89,58309,14.44,75006.0,6.19,-24.05,-25.39,0,*7A
1508126524.09,58310,14.44,75008.5,6.21,-23.89,-25.23,0,*71
1508126525.35,58311,14.44,75004.0,6.19,-23.85,-25.03,0,*75
1508126526.57,58312,14.44,75008.0,6.21,-23.85,-24.97,0,*71
1508126527.81,58313,14.44,75004.3,6.21,-23.59,-24.71,0,*79
1508126529.05,58314,14.44,75004.3,6.21,-23.69,-24.83,0,*70
1508126530.31,58315,14.44,75006.0,6.23,-23.79,-25.03,0,*7B
1508126531.59,58316,14.44,75004.3,6.23,-23.95,-25.03,0,*7A
1508126532.82,58317,14.44,75004.8,6.21,-23.95,-25.39,0,*70
1508126534.05,58318,14.44,75010.5,6.21,-23.99,-25.35,0,*7F
1508126535.25,58319,14.38,75006.0,6.21,-23.89,-25.23,0,*78
1508126536.49,58320,14.44,75008.8,6.21,-23.85,-25.09,0,*76
1508126537.7,58321,14.44,75010.3,6.19,-23.75,-24.97,0,*75
1508126538.93,58322,14.44,75006.8,6.21,-23.59,-25.03,0,*7F
1508126540.13,58323,14.44,75010.5,6.21,-23.89,-25.35,0,*76
1508126541.35,58324,14.44,75004.8,6.21,-23.85,-25.23,0,*7A
1508126542.56,58325,14.44,75010.8,6.21,-23.89,-25.35,0,*70
1508126543.79,58326,14.44,75008.5,6.19,-23.99,-25.39,0,*75
1508126545.03,58327,14.44,75004.8,6.21,-24.11,-25.49,0,*7F
1508126546.26,58328,14.44,75006.8,6.19,-23.99,-25.35,0,*77
1508126547.49,58329,14.44,75010.3,6.21,-23.99,-25.35,0,*7D
1508126548.72,58330,14.44,75008.5,6.19,-23.99,-25.23,0,*79
1508126549.93,58331,14.44,75008.8,6.19,-23.75,-24.97,0,*74
1508126551.15,58332,14.38,75006.0,6.21,-23.69,-24.97,0,*71
1508126552.38,58333,14.44,75006.5,6.21,-23.85,-25.09,0,*74
1508126553.64,58334,14.44,75008.5,6.19,-23.85,-25.03,0,*72
1508126554.85,58335,14.44,75008.0,6.19,-23.89,-25.35,0,*7A
1508126556.06,58336,14.44,75008.0,6.19,-24.05,-25.39,0,*76
1508126557.27,58337,14.44,75010.8,6.19,-23.89,-25.35,0,*78
1508126558.48,58338,14.44,75010.0,6.19,-24.05,-25.39,0,*78
1508126559.72,58339,14.44,75010.8,6.19,-23.85,-25.09,0,*75
1508126560.94,58340,14.44,75008.8,6.19,-23.69,-24.97,0,*7F
1508126562.17,58341,14.44,75008.0,6.19,-23.89,-25.03,0,*7C
1508126563.39,58342,14.44,75006.8,6.19,-24.05,-25.49,0,*72
1508126564.63,58343,14.38,75002.5,6.19,-24.21,-25.49,0,*75
1508126565.9,58344,14.44,75006.5,6.19,-24.41,-25.71,0,*7F
1508126567.15,58345,14.44,75002.0,6.19,-24.51,-25.71,0,*7F
1508126568.42,58346,14.44,75008.3,6.19,-24.41,-25.55,0,*7B
1508126569.65,58347,14.44,75012.8,6.17,-24.57,-25.87,0,*7C
1508126570.89,58348,14.44,75008.8,6.17,-24.31,-25.61,0,*7B
1508126572.13,58349,14.44,75010.0,6.17,-24.31,-25.61,0,*7A
1508126573.43,58350,14.44,75000.0,6.17,-24.25,-25.75,0,*72
1508126574.66,58351,14.44,75002.8,6.15,-24.35,-25.75,0,*70
1508126575.9,58352,14.44,75008.8,6.15,-24.47,-25.75,0,*76
1508126577.12,58353,14.44,75014.8,6.15,-24.35,-25.65,0,*73
1508126578.37,58354,14.44,75008.8,6.15,-24.11,-25.45,0,*70
1508126579.62,58355,14.44,75008.3,6.13,-24.11,-25.35,0,*70
1508126580.86,58356,14.44,75008.5,6.13,-24.31,-25.61,0,*70
1508126582.13,58357,14.44,75010.5,6.13,-24.21,-25.61,0,*70
1508126583.38,58358,14.44,75008.3,6.13,-23.85,-24.97,0,*7E
1508126584.66,58359,14.44,75006.0,6.09,-23.85,-25.03,0,*78
1508126585.91,58360,14.44,75006.3,6.13,-23.65,-24.97,0,*7B
1508126587.17,58361,14.44,75006.3,6.13,-23.95,-25.13,0,*78
1508126588.42,58362,14.44,75010.3,6.13,-23.99,-25.13,0,*77
1508126589.66,58363,14.44,75008.8,6.13,-23.79,-25.09,0,*73
1508126590.89,58364,14.38,75004.5,6.09,-24.05,-25.23,0,*7B
1508126592.14,58365,14.44,75008.3,6.13,-23.99,-25.35,0,*74
1508126593.4,58366,14.44,75004.5,6.13,-24.11,-25.35,0,*70
1508126594.66,58367,14.44,75010.5,6.13,-24.21,-25.61,0,*73
1508126595.93,58368,14.44,75010.0,6.13,-24.21,-25.61,0,*7C
1508126597.19,58369,14.44,75008.5,6.09,-24.15,-25.49,0,*7B
1508126598.44,58370,14.44,75012.3,6.13,-23.95,-25.19,0,*72
1508126599.71,58371,14.44,75004.3,6.09,-23.59,-24.71,0,*77
1508126600.96,58372,14.44,75008.3,6.13,-23.53,-24.93,0,*79
1508126602.19,58373,14.44,75010.8,6.13,-23.79,-24.93,0,*70
1508126603.42,58374,14.44,75006.0,6.09,-23.89,-25.19,0,*70
1508126604.67,58375,14.44,75006.3,6.13,-24.15,-25.49,0,*7D
1508126605.93,58376,14.44,75006.3,6.13,-23.99,-25.19,0,*78
1508126607.19,58377,14.44,75010.8,6.09,-23.99,-25.23,0,*7B
1508126608.44,58378,14.38,75010.8,6.13,-23.99,-25.35,0,*78
1508126609.69,58379,14.44,75008.5,6.13,-23.69,-25.09,0,*79
1508126610.95,58380,14.44,75006.0,6.09,-23.59,-24.87,0,*70
1508126612.18,58381,14.44,75010.8,6.09,-23.59,-24.97,0,*70
1508126613.42,58382,14.44,75004.5,6.09,-23.75,-24.97,0,*7D
1508126614.68,58383,14.44,75010.0,6.09,-23.99,-24.93,0,*7A
1508126615.94,58384,14.44,75010.0,6.13,-23.85,-25.09,0,*79
1508126617.19,58385,14.44,75004.5,6.13,-23.99,-25.19,0,*74
1508126618.43,58386,14.44,75004.0,6.09,-24.05,-25.49,0,*7B
1508126619.67,58387,14.44,75004.0,6.09,-24.35,-25.65,0,*77
1508126620.96,58388,14.44,75008.0,6.09,-24.15,-25.55,0,*79
1508126622.21,58389,14.44,75006.8,6.13,-23.99,-25.19,0,*78
1508126623.46,58390,14.44,75004.0,6.13,-23.95,-25.19,0,*7C
1508126624.76,58391,14.44,75008.5,6.09,-24.21,-25.55,0,*76
1508126626.03,58392,14.44,75006.8,6.09,-24.35,-25.71,0,*76
1508126627.32,58393,14.44,75004.8,6.09,-24.41,-25.81,0,*7B
1508126628.59,58394,14.44,75004.0,6.09,-24.25,-25.65,0,*74
1508126629.85,58395,14.44,75006.5,6.09,-24.15,-25.49,0,*78
1508126631.14,58396,14.44,75004.5,6.09,-24.15,-25.55,0,*76
1508126632.38,58397,14.44,75006.8,6.07,-24.35,-25.55,0,*7B
1508126633.65,58398,14.44,75004.5,6.05,-24.31,-25.71,0,*74
1508126634.9,58399,14.44,75004.0,6.07,-24.21,-25.49,0,*7D
1508126636.17,58400,14.44,75006.5,6.07,-24.21,-25.55,0,*77
1508126637.46,58401,14.44,75008.3,6.05,-24.21,-25.55,0,*74
1508126638.7,58402,14.44,75008.5,6.09,-24.05,-25.23,0,*7C
1508126639.94,58403,14.44,75006.8,6.07,-24.15,-25.39,0,*79
1508126641.2,58404,14.44,75010.8,6.07,-24.15,-25.55,0,*74
1508126642.49,58405,14.44,75012.0,6.05,-24.21,-25.29,0,*7B
1508126643.74,58406,14.44,75004.0,6.07,-24.21,-25.49,0,*7C
1508126645.01,58407,14.44,75012.3,6.07,-24.25,-25.55,0,*74
1508126646.25,58408,14.44,75010.5,6.07,-24.15,-25.39,0,*72
1508126647.51,58409,14.44,75010.3,6.05,-24.31,-25.71,0,*7B
1508126648.78,58410,14.44,75012.5,6.07,-24.15,-25.55,0,*71
1508126650.02,58411,14.44,75008.0,6.03,-24.35,-25.75,0,*74
1508126651.26,58412,14.44,75010.5,6.03,-24.35,-25.75,0,*77
1508126652.48,58413,14.44,75006.0,6.03,-24.31,-25.65,0,*73
1508126653.72,58414,14.44,75010.5,6.01,-24.31,-25.65,0,*76
1508126655.01,58415,14.44,75010.8,6.01,-23.99,-25.29,0,*7A
1508126656.26,58416,14.44,75006.8,6.01,-23.99,-25.23,0,*73
1508126657.49,58417,14.44,75008.3,6.05,-23.59,-24.77,0,*7A
1508126658.72,58418,14.44,75010.5,6.01,-23.39,-24.51,0,*73
1508126659.97,58419,14.44,75010.8,6.05,-23.49,-24.61,0,*72
1508126661.26,58420,14.44,75010.5,6.05,-23.49,-24.71,0,*79
1508126662.51,58421,14.44,75006.5,6.07,-23.29,-24.15,0,*7E
1508126663.74,58422,14.44,75006.8,6.05,-22.97,-24.05,0,*7A
1508126664.96,58423,14.44,75008.5,6.07,-22.57,-23.75,0,*75
1508126666.19,58424,14.44,75008.5,6.09,-22.63,-23.75,0,*7B
1508126667.44,58425,14.44,75010.5,6.09,-22.93,-23.99,0,*77
1508126668.69,58426,14.44,75014.0,6.13,-22.87,-23.99,0,*7A
1508126669.94,58427,14.44,75008.0,6.13,-22.97,-24.15,0,*79
1508126671.19,58428,14.44,75008.5,6.13,-22.97,-23.99,0,*75
1508126672.46,58429,14.44,75010.0,6.13,-23.03,-24.11,0,*7F
1508126673.71,58430,14.44,75010.8,6.17,-22.77,-23.89,0,*77
1508126674.94,58431,14.44,75010.3,6.15,-22.53,-23.69,0,*7C
1508126676.22,58432,14.44,75010.3,6.17,-22.77,-23.65,0,*77
1508126677.45,58433,14.44,75010.8,6.17,-22.93,-23.89,0,*7E
1508126678.7,58434,14.44,75010.0,6.17,-23.13,-24.11,0,*76
1508126679.95,58435,14.44,75010.8,6.17,-22.93,-23.95,0,*75
1508126681.2,58436,14.44,75014.5,6.21,-22.73,-23.85,0,*7C
1508126682.43,58437,14.44,75012.0,6.21,-22.73,-23.75,0,*72
1508126683.66,58438,14.44,75014.0,6.19,-22.73,-23.75,0,*76
1508126684.91,58439,14.44,75014.0,6.21,-22.77,-23.69,0,*75
1508126686.13,58440,14.44,75012.3,6.21,-22.97,-24.11,0,*7D
1508126687.36,58441,14.44,75008.0,6.23,-23.39,-24.47,0,*78
1508126688.58,58442,14.44,75012.5,6.23,-23.39,-24.61,0,*7F
1508126689.84,58443,14.44,75014.3,6.23,-23.23,-24.51,0,*76
1508126691.1,58444,14.44,75010.5,6.23,-23.09,-24.21,0,*7E
1508126692.36,58445,14.44,75014.3,6.25,-23.03,-23.99,0,*77
1508126693.6,58446,14.44,75014.3,6.25,-22.93,-24.21,0,*78
1508126694.83,58447,14.44,75016.3,6.23,-23.09,-24.31,0,*7C
1508126696.06,58448,14.44,75014.5,6.25,-23.33,-24.47,0,*7D
1508126697.32,58449,14.44,75014.5,6.23,-23.19,-24.31,0,*73
1508126698.58,58450,14.44,75012.3,6.25,-23.19,-24.21,0,*7C
1508126699.8,58451,14.44,75014.5,6.25,-23.09,-24.47,0,*7C
1508126701.03,58452,14.44,75014.8,6.25,-23.19,-24.35,0,*7B
1508126702.26,58453,14.44,75014.0,6.25,-23.53,-24.61,0,*75
1508126703.54,58454,14.44,75014.3,6.23,-23.53,-24.67,0,*72
1508126704.77,58455,14.44,75012.8,6.25,-23.69,-24.77,0,*7D
1508126706.0,58456,14.44,75012.3,6.25,-23.65,-24.77,0,*72
1508126707.23,58457,14.44,75012.0,6.25,-23.49,-24.51,0,*79
1508126708.44,58458,14.44,75014.8,6.25,-23.09,-24.35,0,*70
1508126709.68,58459,14.44,75012.5,6.25,-23.03,-24.05,0,*78
1508126710.93,58460,14.44,75014.3,6.27,-22.97,-24.11,0,*79
1508126712.21,58461,14.44,75016.3,6.27,-23.19,-24.25,0,*78
1508126713.42,58462,14.44,75008.0,6.29,-23.43,-24.57,0,*7F
1508126714.62,58463,14.44,75014.0,6.29,-23.59,-24.77,0,*77
1508126715.88,58464,14.44,75012.8,6.27,-23.13,-24.25,0,*77
1508126717.14,58465,14.44,75014.3,6.27,-23.49,-24.61,0,*79
1508126718.4,58466,14.44,75014.0,6.27,-23.59,-24.71,0,*7A
1508126719.63,58467,14.44,75018.0,6.27,-23.13,-24.31,0,*71
1508126720.88,58468,14.44,75014.5,6.27,-22.87,-23.99,0,*77
1508126722.13,58469,14.44,75010.5,6.27,-22.97,-24.11,0,*70
1508126723.38,58470,14.44,75012.8,6.29,-23.03,-24.15,0,*7E
1508126724.6,58471,14.44,75014.0,6.29,-23.29,-24.31,0,*71
1508126725.85,58472,14.44,75012.3,6.29,-23.03,-24.15,0,*7C
1508126727.07,58473,14.44,75010.8,6.29,-22.97,-24.11,0,*75
1508126728.3,58474,14.44,75014.3,6.29,-22.97,-23.95,0,*79
1508126729.52,58475,14.44,75010.3,6.31,-22.83,-23.89,0,*79
1508126730.78,58476,14.44,75014.3,6.31,-22.93,-24.21,0,*7E
1508126732.03,58477,14.44,75014.3,6.35,-22.87,-23.99,0,*7A
1508126733.26,58478,14.44,75016.0,6.35,-23.09,-24.31,0,*77
1508126734.51,58479,14.44,75012.5,6.35,-23.23,-24.51,0,*78
1508126735.76,58480,14.44,75010.3,6.31,-23.53,-24.57,0,*7B
1508126737.01,58481,14.44,75014.5,6.31,-23.39,-24.41,0,*71
1508126738.28,58482,14.44,75014.5,6.35,-23.49,-24.67,0,*75
1508126739.54,58483,14.44,75010.0,6.35,-23.79,-25.03,0,*74
1508126740.82,58484,14.44,75012.0,6.31,-23.85,-25.03,0,*74
1508126742.04,58485,14.44,75014.5,6.35,-23.39,-24.51,0,*70
1508126743.31,58486,14.44,75014.0,6.35,-23.49,-24.67,0,*71
1508126744.59,58487,14.44,75012.8,6.35,-23.49,-24.67,0,*70
1508126745.84,58488,14.44,75012.8,6.31,-23.23,-24.35,0,*70
1508126747.09,58489,14.44,75012.8,6.35,-23.03,-24.31,0,*73
1508126748.34,58490,14.44,75012.0,6.35,-23.23,-24.47,0,*78
1508126749.59,58491,14.44,75012.0,6.31,-23.29,-24.57,0,*76
1508126750.85,58492,14.44,75016.0,6.31,-23.43,-24.71,0,*7D
1508126752.1,58493,14.44,75016.8,6.35,-23.33,-24.35,0,*7F
1508126753.35,58494,14.44,75018.5,6.35,-23.19,-24.35,0,*70
1508126754.57,58495,14.44,75016.3,6.37,-23.23,-24.47,0,*7F
1508126755.83,58496,14.44,75016.3,6.35,-23.03,-24.05,0,*7A
1508126757.05,58497,14.44,75014.5,6.35,-22.87,-23.89,0,*75
1508126758.32,58498,14.44,75012.3,6.35,-22.77,-23.99,0,*74
1508126759.6,58499,14.44,75016.0,6.39,-23.19,-24.41,0,*72
1508126760.83,58500,14.44,75012.3,6.37,-23.33,-24.61,0,*77
1508126762.04,58501,14.44,75020.5,6.37,-23.39,-24.67,0,*7A
1508126763.27,58502,14.44,75020.5,6.37,-23.53,-24.77,0,*74
1508126764.51,58503,14.44,75020.3,6.37,-23.53,-24.67,0,*74
1508126765.71,58504,14.44,75020.8,6.37,-23.09,-24.35,0,*7B
1508126766.93,58505,14.44,75012.0,6.37,-23.19,-24.35,0,*7B
1508126768.18,58506,14.44,75012.0,6.37,-23.53,-24.67,0,*71
1508126769.41,58507,14.44,75008.3,6.39,-23.43,-24.61,0,*79
1508126770.66,58508,14.44,75004.8,6.37,-23.65,-24.83,0,*70
1508126771.86,58509,14.44,75014.3,6.37,-23.79,-25.19,0,*7E
1508126773.1,58510,14.44,75010.3,6.37,-23.69,-24.87,0,*71
1508126774.32,58511,14.44,75008.3,6.37,-23.89,-25.29,0,*7B
1508126775.57,58512,14.44,75012.8,6.37,-24.15,-25.45,0,*70
1508126776.79,58513,14.44,75012.5,6.37,-23.99,-25.35,0,*75
1508126777.99,58514,14.44,75008.0,6.37,-23.89,-25.19,0,*7D
1508126779.27,58515,14.44,75006.8,6.35,-23.99,-25.29,0,*7C
1508126780.55,58516,14.44,75008.5,6.35,-23.85,-25.29,0,*72
1508126781.78,58517,14.44,75012.5,6.35,-23.89,-25.13,0,*76
1508126783.06,58518,14.44,75010.5,6.35,-23.65,-24.83,0,*73
1508126784.31,58519,14.44,75008.3,6.35,-23.49,-24.77,0,*77
1508126785.59,58520,14.44,75010.3,6.35,-23.65,-24.87,0,*7C
1508126786.82,58521,14.44,75008.8,6.31,-24.05,-25.35,0,*70
1508126788.08,58522,14.44,75012.5,6.31,-23.85,-25.19,0,*72
1508126789.31,58523,14.44,75016.0,6.31,-24.05,-25.35,0,*72
1508126790.56,58524,14.44,75016.8,6.31,-23.43,-24.83,0,*7C
1508126791.81,58525,14.44,75014.3,6.35,-22.87,-24.15,0,*7F
1508126793.06,58526,14.44,75014.5,6.35,-23.03,-24.31,0,*77
1508126794.31,58527,14.44,75012.8,6.35,-23.23,-24.51,0,*72
1508126795.56,58528,14.44,75014.5,6.35,-23.23,-24.51,0,*7D
1508126796.82,58529,14.44,75010.5,6.35,-23.33,-24.61,0,*7E
1508126798.04,58530,14.44,75012.0,6.37,-23.53,-24.77,0,*75
1508126799.29,58531,14.44,75014.8,6.37,-23.49,-24.67,0,*7E
1508126800.53,58532,14.44,75016.0,6.37,-23.49,-24.67,0,*7D
1508126801.78,58533,14.44,75012.3,6.37,-23.53,-24.83,0,*7D
1508126803.0,58534,14.44,75012.5,6.37,-23.65,-25.19,0,*7D
1508126804.23,58535,14.44,75012.0,6.37,-23.99,-25.19,0,*7F
1508126805.47,58536,14.44,75008.3,6.37,-24.15,-25.45,0,*76
1508126806.74,58537,14.44,75002.5,6.35,-24.31,-25.75,0,*70
1508126807.98,58538,14.44,75002.3,6.35,-24.47,-25.65,0,*7F
1508126809.22,58539,14.44,75006.0,6.35,-24.35,-25.65,0,*7B
1508126810.46,58540,14.44,75006.0,6.35,-24.31,-25.61,0,*75
1508126811.73,58541,14.44,75008.8,6.31,-24.21,-25.49,0,*7B
1508126812.99,58542,14.44,75010.5,6.31,-24.35,-25.55,0,*70
1508126814.25,58543,14.44,75006.0,6.31,-24.51,-25.81,0,*7A
1508126815.51,58544,14.44,75010.5,6.31,-24.51,-25.81,0,*7D
1508126816.78,58545,14.44,75014.0,6.31,-24.51,-25.71,0,*73
1508126818.01,58546,14.44,75018.0,6.27,-24.61,-25.87,0,*7D
1508126819.21,58547,14.44,75016.0,6.29,-24.57,-25.87,0,*77
1508126820.47,58548,14.44,75016.0,6.29,-24.11,-25.55,0,*75
1508126821.72,58549,14.44,75018.0,6.27,-24.47,-25.61,0,*7E
1508126822.96,58550,14.44,75018.0,6.29,-24.41,-25.61,0,*7E
1508126824.25,58551,14.44,75016.5,6.27,-24.25,-25.45,0,*75
1508126825.51,58552,14.44,75016.8,6.27,-24.57,-25.75,0,*70
1508126826.74,58553,14.44,75012.5,6.27,-24.57,-25.87,0,*7C
1508126827.97,58554,14.44,75016.8,6.27,-24.57,-25.87,0,*7B
1508126829.21,58555,14.44,75018.5,6.25,-24.61,-25.81,0,*7B
1508126830.43,58556,14.44,75018.8,6.25,-24.51,-25.65,0,*71
1508126831.65,58557,14.44,75012.0,6.25,-24.31,-25.61,0,*72
1508126832.89,58558,14.44,75010.0,6.23,-24.35,-25.65,0,*7B
1508126834.15,58559,14.44,75014.8,6.23,-24.61,-25.81,0,*71
1508126835.41,58560,14.44,75014.5,6.23,-24.77,-25.97,0,*7B
1508126836.67,58561,14.44,75014.3,6.25,-24.67,-25.97,0,*7D
1508126837.93,58562,14.44,75014.3,6.23,-24.67,-25.91,0,*7E
1508126839.19,58563,14.44,75012.5,6.25,-24.67,-25.81,0,*78
1508126840.45,58564,14.44,75016.3,6.23,-24.51,-25.81,0,*7C
1508126841.7,58565,14.44,75012.3,6.23,-24.31,-25.49,0,*7F
1508126842.91,58566,14.44,75010.0,6.21,-24.05,-25.39,0,*7E
1508126844.11,58567,14.44,75008.5,6.21,-23.89,-25.35,0,*70
1508126845.34,58568,14.44,75008.0,6.21,-23.89,-25.03,0,*7A
1508126846.57,58569,14.44,75016.0,6.21,-24.21,-25.39,0,*77
1508126847.8,58570,14.44,75006.0,6.21,-23.99,-25.23,0,*70
1508126849.03,58571,14.44,75006.8,6.21,-23.99,-25.35,0,*76
1508126850.23,58572,14.44,74998.5,6.21,-24.05,-25.35,0,*77
1508126851.47,58573,14.44,75004.3,6.21,-24.11,-25.49,0,*78
1508126852.71,58574,14.44,75000.3,6.23,-24.35,-25.61,0,*71
1508126853.97,58575,14.44,75004.0,6.23,-24.61,-25.81,0,*7F
1508126855.2,58576,14.44,75008.8,6.21,-24.67,-25.87,0,*7E
1508126856.44,58577,14.44,75012.0,6.21,-24.51,-25.71,0,*73
1508126857.67,58578,14.44,75008.5,6.21,-23.85,-25.09,0,*7D
1508126858.87,58579,14.44,75010.3,6.21,-23.89,-25.39,0,*73
1508126860.12,58580,14.44,75018.3,6.21,-23.85,-25.03,0,*70
1508126861.38,58581,14.44,75012.0,6.21,-23.85,-25.03,0,*71
1508126862.61,58582,14.44,75010.8,6.19,-23.59,-24.71,0,*7C
1508126863.85,58583,14.38,75004.0,6.21,-23.75,-25.03,0,*7C
1508126865.07,58584,14.44,75010.8,6.21,-23.99,-25.35,0,*7C
1508126866.3,58585,14.44,75010.8,6.21,-23.99,-25.23,0,*7A
1508126867.55,58586,14.44,75014.0,6.21,-23.69,-24.87,0,*79
1508126868.78,58587,14.44,75012.8,6.19,-23.09,-24.41,0,*7F
1508126870.01,58588,14.44,75006.8,6.21,-23.13,-24.41,0,*70
1508126871.24,58589,14.44,75010.0,6.25,-23.23,-24.47,0,*70
1508126872.5,58590,14.44,75004.8,6.23,-23.65,-24.77,0,*7F
1508126873.75,58591,14.44,75004.8,6.23,-24.05,-25.45,0,*7F
1508126874.97,58592,14.44,75006.3,6.25,-24.47,-25.65,0,*7E
1508126876.22,58593,14.44,75010.8,6.23,-24.47,-25.65,0,*79
1508126877.45,58594,14.44,75008.3,6.23,-24.61,-25.91,0,*71
1508126878.7,58595,14.44,75014.3,6.23,-24.67,-25.91,0,*76
1508126879.94,58596,14.44,75008.3,6.21,-24.25,-25.65,0,*7A
1508126881.18,58597,14.44,75010.3,6.21,-24.35,-25.55,0,*79
1508126882.42,58598,14.44,75000.5,6.21,-24.51,-25.81,0,*7D
1508126883.65,58599,14.44,75004.3,6.21,-24.35,-25.55,0,*77
1508126884.89,58600,14.44,75006.5,6.19,-24.51,-25.81,0,*74
1508126886.13,58601,14.44,74998.8,6.21,-24.51,-25.81,0,*7E
1508126887.39,58602,14.44,74996.0,6.19,-24.41,-25.81,0,*77
1508126888.62,58603,14.44,74992.5,6.19,-24.57,-25.81,0,*71
1508126889.88,58604,14.44,75008.0,6.19,-24.67,-25.97,0,*72
1508126891.14,58605,14.44,75014.5,6.19,-24.67,-25.97,0,*73
1508126892.41,58606,14.44,75014.8,6.17,-24.71,-25.91,0,*7F
1508126893.64,58607,14.44,75014.5,6.15,-24.77,-25.97,0,*7C
1508126894.88,58608,14.44,75018.5,6.15,-24.57,-25.75,0,*7D
1508126896.11,58609,14.44,75014.0,6.17,-24.57,-25.87,0,*73
1508126897.34,58610,14.44,75014.0,6.15,-24.51,-25.81,0,*79
1508126898.62,58611,14.44,75010.3,6.17,-24.11,-25.45,0,*76
1508126899.89,58612,14.44,75010.0,6.17,-24.11,-25.49,0,*79
1508126901.1,58613,14.44,75008.0,6.15,-24.47,-25.65,0,*77
1508126902.31,58614,14.44,75004.8,6.15,-24.61,-25.65,0,*74
1508126903.53,58615,14.44,75008.5,6.15,-24.31,-25.65,0,*70
1508126904.74,58616,14.44,75004.3,6.15,-24.35,-25.61,0,*73
1508126905.96,58617,14.44,75006.3,6.15,-24.47,-25.65,0,*73